Regional Weather Roundup
Issued by NWS Grand Forks, ND

Home | Current Version | Previous Version | Text Only | Print | Product List | Glossary Off
Versions: 1 2 3 4 5 6 7 8 9 10 11 12 13 14 15 16 17 18 19 20 21 22 23 24 25 26 27 28 29 30 31 32 33 34 35 36 37 38 39 40 41 42 43 44 45 46 47 48 49 50

907
ASUS43 KFGF 281831
RWRFGF
PRAIRIE TO PINES  WEATHER ROUNDUP
NATIONAL WEATHER SERVICE EASTERN NORTH DAKOTA/GRAND FORKS ND
100 PM CDT SUN AUG 28 2016

 **SATELLITE DATA USED TO AUGMENT SKY COVER AT AUTOMATED STATIONS**
 *****  WEATHER ACROSS EASTERN NORTH DAKOTA  *****

CITY           SKY/WX    TMP DP  RH WIND       PRES   REMARKS
GRAND FORKS    PTSUNNY   77  63  61 SE18G25   29.97F
6HR MIN TEMP:  58; 6HR MAX TEMP:  78;

GRAND FRKS AFB SUNNY     77  64  65 S20G25    29.98S
GRAND FRKS NWS   N/A     79 N/A N/A SE12        N/A
DEVILS LAKE    SUNNY     78  67  68 SE17G24   29.94F
6HR MIN TEMP:  61; 6HR MAX TEMP:  78;

FARGO          SUNNY     80  64  58 S18G28    29.98F
WAHPETON ARPT  CLEAR     82  63  51 S15G25    29.99F
$$

 ***** WEATHER ACROSS CENTRAL AND WESTERN NORTH DAKOTA  *****

CITY           SKY/WX    TMP DP  RH WIND       PRES   REMARKS
BISMARCK       MOSUNNY   80  65  59 S7        29.91S
6HR MIN TEMP:  56; 6HR MAX TEMP:  80;

MINOT          SUNNY     87  59  38 SE14      29.86F
6HR MIN TEMP:  59; 6HR MAX TEMP:  87;

JAMESTOWN      PTSUNNY   80  70  71 SE13      29.93S
6HR MIN TEMP:  62; 6HR MAX TEMP:  80;

MINOT AFB      SUNNY     87  60  39 SE17      29.85F
GARRISON         N/A     83  65  54 SE7       29.89F
WILLISTON      PTSUNNY   82  53  36 S7        29.88S
6HR MIN TEMP:  60; 6HR MAX TEMP:  83;

DICKINSON      SUNNY     90  34  13 SW7       29.91R
6HR MIN TEMP:  52; 6HR MAX TEMP:  90;

HETTINGER      SUNNY     90  49  24 SE3       29.95R
6HR MIN TEMP:  46; 6HR MAX TEMP:  90;

$$

 *****  OTHER AIRPORT OBSERVATIONS IN OUR AREA  *****

CITY           SKY/WX    TMP DP  RH WIND       PRES   REMARKS
WALHALLA       FAIR      77  77 100 SE16      29.95F
GRAFTON AIRPOR FAIR      79  64  61 S16G28    29.98F
VALLEY CITY AR FAIR      79  70  73 S20G26    29.97F
CANDO          FAIR      81  66  61 SE18G25   29.95F
CAVALIER APRT  FAIR      79  64  61 SE12G18   29.95F
GWINNER        FAIR      82  72  69 S16G23    29.96F
SHEYENNE NWR     N/A     81  68  63 S17       29.95
ROLLA            N/A     79  64  61 S13G20    29.95F
 ***** THE ABOVE OBSERVATIONS ARE NON NWS ARE NOT QUALITY
       CONTROLLED AND MAY MIS-REPORT RAIN FOR SNOW...
$$

  *****  WEATHER ACROSS NORTHERN MINNESOTA  *****

CITY           SKY/WX    TMP DP  RH WIND       PRES   REMARKS
FLAG ISLAND    CLOUDY    64  61  88 SE5       30.07S
WARROAD        PTSUNNY   70  66  88 SE14      30.06F
ROSEAU         SUNNY     75  66  73 SE13      30.04F
HALLOCK        SUNNY     81  63  54 S17G25    29.97F
THF RVR FALLS  MOSUNNY   77  62  59 SE17      30.04S
6HR MIN TEMP:  55; 6HR MAX TEMP:  77;

BAUDETTE       CLOUDY    68  64  87 SE10      30.09S
6HR MIN TEMP:  55; 6HR MAX TEMP:  66;

WASKISH        CLOUDY    70  64  83 SE9       30.10F
CROOKSTON      SUNNY     79  66  65 S15       30.00F
STEPHEN NDAWN    N/A     81  63  54 S13         N/A
GREENBUSH NDAW   N/A     81  64  57 SE13        N/A
$$
  *****  WEATHER ACROSS CENTRAL AND WEST MINNESOTA  *****

CITY           SKY/WX    TMP DP  RH WIND       PRES   REMARKS
FOSSTON        CLOUDY    73  66  78 SE8       30.05F
BEMIDJI        SUNNY     74  63  68 SE9       30.09F
PARK RAPIDS    MOSUNNY   76  63  64 SE16      30.08F
6HR MIN TEMP:  61; 6HR MAX TEMP:  76;

ELBOW LAKE     FAIR      80  66  62 SE16      30.04F
WADENA         SUNNY     77  64  65 SE12G18   30.07F
DETROIT LAKES  SUNNY     75  64  69 SE15      30.05S
MOORHEAD       SUNNY     81  64  57 S15G26    29.99S
FERGUS FALLS   SUNNY     79  64  61 S17       30.03F
MORRIS MN      SUNNY     84  68  58 S20       30.03F
STAPLES        MOSUNNY   75  63  64 S8        30.09F
$$
  *****  WEATHER ELSEWHERE ACROSS MINNESOTA  *****

CITY           SKY/WX    TMP DP  RH WIND       PRES   REMARKS
DULUTH         PTSUNNY   68  62  81 S6        30.18F
6HR MIN TEMP:  59; 6HR MAX TEMP:  68;

INTRNTL FALLS  CLOUDY    67  61  81 VRB5      30.14S
6HR MIN TEMP:  57; 6HR MAX TEMP:  67;

ELY            CLOUDY    64  61  88 W5        30.18S
CLOQUET        PTSUNNY   68  61  77 SE6       30.17S
WHEATON        SUNNY     82  72  69 SE17G24   30.01F
BRAINERD       MOSUNNY   77  64  64 SE10      30.12S
6HR MIN TEMP:  60; 6HR MAX TEMP:  77;

HIBBING        PTSUNNY   68  62  81 VRB6      30.16S
6HR MIN TEMP:  55; 6HR MAX TEMP:  66;

ALEXANDRIA     SUNNY     77  65  66 S12       30.09S
6HR MIN TEMP:  62; 6HR MAX TEMP:  78;

SAINT CLOUD    CLOUDY    71  68  90 SE8       30.12S
6HR MIN TEMP:  60; 6HR MAX TEMP:  71; 6HR PCP:  0.06;

MINNEAPOLIS    PTSUNNY   81  67  62 S13       30.13S
6HR MIN TEMP:  62; 6HR MAX TEMP:  81;

$$

  *****  WEATHER ACROSS SOUTH DAKOTA  *****

CITY           SKY/WX    TMP DP  RH WIND       PRES   REMARKS
SIOUX FALLS    MOSUNNY   85  74  69 S15G25    30.07S HX  92
6HR MIN TEMP:  64; 6HR MAX TEMP:  85;

BROOKINGS      SUNNY     82  73  74 S16       30.05F
WATERTOWN      SUNNY     82  71  69 S20G26    30.03F
6HR MIN TEMP:  66; 6HR MAX TEMP:  82;

HURON          SUNNY     86  70  58 S17G23    29.97F HX  90
6HR MIN TEMP:  65; 6HR MAX TEMP:  86;

SISSETON         N/A     80  70  71 S21G30    29.98F
ABERDEEN       SUNNY     85  69  58 S17G28    29.95F
6HR MIN TEMP:  66; 6HR MAX TEMP:  85;

MITCHELL       SUNNY     86  70  58 SE14G22   30.00F HX  90
PIERRE         SUNNY     88  63  43 S10       29.91F
6HR MIN TEMP:  61; 6HR MAX TEMP:  88;

MOBRIDGE       SUNNY     85  65  51 SE15      29.90S
RAPID CITY     SUNNY     85  49  28 S5        30.00R
6HR MIN TEMP:  49; 6HR MAX TEMP:  85; 6HR PCP: TRACE;

$$

  *****  SOME WEATHER IN NEARBY STATES *****

CITY           SKY/WX    TMP DP  RH WIND       PRES   REMARKS
GLASGOW MT     MOSUNNY   80  47  31 NW13      29.93R
6HR MIN TEMP:  59; 6HR MAX TEMP:  81;

GREAT FALLS MT MOSUNNY   78  41  26 VRB5      30.03R
6HR MIN TEMP:  61; 6HR MAX TEMP:  78;

CHEYENNE WY    MOSUNNY   81  29  15 VRB3      30.22F
6HR MIN TEMP:  52; 6HR MAX TEMP:  83;

SCOTTSBLUFF NE SUNNY     85  42  22 W5        30.09F
6HR MIN TEMP:  54; 6HR MAX TEMP:  85;

OMAHA NE       PTSUNNY   86  71  60 S9        30.10S HX  91
6HR MIN TEMP:  68; 6HR MAX TEMP:  87;

DES MOINES IA  CLOUDY    87  75  67 SE7       30.13F HX  96
6HR MIN TEMP:  69; 6HR MAX TEMP:  87;

DAVENPORT IA   MOSUNNY   87  74  64 SE6       30.18F HX  95
6HR MIN TEMP:  66; 6HR MAX TEMP:  87;

CHICAGO IL     MOSUNNY   82  68  62 E8        30.19F
6HR MIN TEMP:  72; 6HR MAX TEMP:  83;

EAU CLAIRE WI  CLOUDY    73  67  81 SE12      30.17F
6HR MIN TEMP:  63; 6HR MAX TEMP:  73;

LA CROSSE WI   PTSUNNY   77  69  76 SE6       30.18F
6HR MIN TEMP:  67; 6HR MAX TEMP:  76;

$$

  *****  SOME NATIONAL WEATHER *****

CITY           SKY/WX    TMP DP  RH WIND       PRES   REMARKS
LA GUARDIA NY  MOSUNNY   88  58  36 SE12      30.23F
6HR MIN TEMP:  76; 6HR MAX TEMP:  89;

RALEIGH NC     MOSUNNY   87  66  49 E14       30.19F
6HR MIN TEMP:  72; 6HR MAX TEMP:  88;

ATLANTA GA     PTSUNNY   87  71  58 NE12G21   30.15F HX  93
6HR MIN TEMP:  74; 6HR MAX TEMP:  88;

NEW ORLEANS LA CLOUDY    86  74  67 E8        30.00F HX  94
6HR MIN TEMP:  83; 6HR MAX TEMP:  88;

OKLAHOMA CITY  MOSUNNY   88  67  49 SE10      30.10F HX  91
6HR MIN TEMP:  70; 6HR MAX TEMP:  89;

ALBUQUERQUE NM MOSUNNY   75  48  38 NW5       30.27S
6HR MIN TEMP:  57; 6HR MAX TEMP:  75;

SALT LAKE CITY MOSUNNY   84  41  21 S14G22    30.17R
6HR MIN TEMP:  64; 6HR MAX TEMP:  84;

LOS ANGELES CA SUNNY     73  61  65 W7        30.02F
6HR MIN TEMP:  63; 6HR MC1F1C2F2C3F3C4F4C5F5C6F6C7F7C8F8C9F9CaFaCbFbCcFcCd!



USA.gov is the U.S. government's official web portal to all federal, state and local government web resources and services.